GW6797 Weather Reports


Display with metric or nautical units.
time (UTC)temp
F
wind
direction
speed
MPH
gust
MPH
rain 1hr
in
rain 24hr
in
rain mn
in
humidity
%
barometer
mb
20260507234706 56 120 0.0 2.0 0.00 0.04 0.00 85 1015.6
20260507234205 56 244 0.0 2.0 0.00 0.04 0.00 85 1015.7
20260507233705 56 243 1.0 2.0 0.00 0.04 0.00 85 1015.8
20260507233205 56 240 0.0 2.0 0.00 0.04 0.00 86 1015.9
20260507232703 55 242 0.0 2.0 0.00 0.04 0.00 87 1015.9
20260507232204 55 242 0.0 2.0 0.00 0.04 0.00 88 1016.0
20260507231703 55 333 0.0 2.0 0.00 0.04 0.00 88 1015.8
20260507231203 55 312 2.0 3.0 0.00 0.04 0.00 88 1016.0
20260507230702 55 112 2.0 3.0 0.00 0.04 0.00 87 1016.0
20260507230202 56 201 0.0 3.0 0.00 0.04 0.00 87 1016.0
20260507225701 56 119 0.0 3.0 0.00 0.04 0.00 86 1016.1
20260507225200 56 69 1.0 3.0 0.00 0.04 0.00 85 1016.1
20260507224700 56 82 2.0 3.0 0.00 0.04 0.00 84 1016.0
20260507224200 56 60 0.0 2.0 0.00 0.04 0.00 84 1016.2
20260507223659 56 142 0.0 2.0 0.00 0.04 0.00 83 1016.3
20260507223159 56 96 2.0 2.0 0.00 0.04 0.00 82 1016.0
20260507222658 56 127 0.0 2.0 0.00 0.04 0.00 83 1015.8
20260507222158 56 283 1.0 2.0 0.00 0.04 0.00 83 1016.0
20260507221656 56 269 2.0 2.0 0.00 0.04 0.00 83 1016.0
20260507220655 57 302 2.0 4.0 0.00 0.04 0.00 82 1016.1
20260507220156 57 269 1.0 4.0 0.00 0.04 0.00 82 1016.0
20260507215655 57 234 0.0 3.0 0.00 0.04 0.04 82 1016.0
20260507215155 57 250 2.0 4.0 0.00 0.04 0.04 81 1016.2
20260507214653 57 274 2.0 4.0 0.00 0.04 0.04 80 1016.0
20260507214153 57 262 3.0 4.0 0.00 0.04 0.04 81 1016.0
20260507213652 57 325 3.0 4.0 0.00 0.04 0.04 82 1016.0
20260507213152 57 274 1.0 5.0 0.00 0.04 0.04 81 1016.1
20260507212651 57 261 3.0 5.0 0.00 0.04 0.04 81 1016.0
20260507212151 57 252 4.0 5.0 0.00 0.04 0.04 81 1016.4
20260507211151 57 238 2.0 4.0 0.00 0.04 0.04 81 1016.1
20260507210649 57 289 1.0 6.0 0.00 0.04 0.04 81 1016.2
20260507210150 57 247 6.0 6.0 0.00 0.04 0.04 81 1016.2
20260507205648 57 257 1.0 5.0 0.00 0.04 0.04 80 1016.2
20260507205148 57 297 0.0 6.0 0.00 0.04 0.04 80 1016.2
20260507204647 57 120 2.0 6.0 0.00 0.04 0.04 81 1016.0
20260507204148 57 279 3.0 6.0 0.00 0.04 0.04 81 1016.2
20260507203646 58 272 1.0 6.0 0.00 0.04 0.04 81 1016.1
20260507203146 57 290 3.0 6.0 0.00 0.04 0.04 82 1016.3
20260507202645 57 254 5.0 5.0 0.00 0.04 0.04 82 1016.1
20260507202145 58 283 2.0 6.0 0.00 0.04 0.04 82 1016.2
20260507201645 58 262 3.0 7.0 0.00 0.04 0.04 82 1016.3
20260507201144 58 207 0.0 9.0 0.00 0.04 0.04 81 1016.2
20260507200643 58 244 3.0 9.0 0.00 0.04 0.04 81 1016.2
20260507200143 58 342 6.0 6.0 0.00 0.04 0.04 81 1016.2
20260507195642 58 261 6.0 8.0 0.00 0.04 0.04 81 1016.1
20260507195141 58 301 4.0 9.0 0.00 0.04 0.04 81 1015.9
20260507194142 58 250 6.0 9.0 0.00 0.04 0.04 81 1016.1
20260507193641 58 278 3.0 9.0 0.00 0.04 0.04 81 1016.0
20260507193140 58 254 5.0 9.0 0.00 0.04 0.04 81 1016.0
20260507192639 58 250 5.0 9.0 0.00 0.04 0.04 81 1016.0
20260507191638 59 263 4.0 9.0 0.00 0.04 0.04 81 1015.8
20260507191138 59 247 3.0 8.0 0.00 0.04 0.04 81 1015.8
20260507190137 59 268 6.0 7.0 0.00 0.04 0.04 80 1015.7
20260507185637 59 247 4.0 6.0 0.00 0.04 0.04 80 1015.6
20260507185136 59 247 4.0 6.0 0.00 0.04 0.04 80 1015.8
20260507184636 59 270 4.0 6.0 0.00 0.04 0.04 80 1015.6
20260507183634 59 239 2.0 6.0 0.00 0.04 0.04 79 1015.7
20260507183134 59 291 2.0 6.0 0.00 0.04 0.04 79 1015.6
20260507182633 60 242 2.0 7.0 0.00 0.04 0.04 79 1015.5
20260507182133 60 289 1.0 7.0 0.00 0.04 0.04 79 1015.5
20260507181632 60 266 2.0 7.0 0.00 0.04 0.04 78 1015.6
20260507181132 60 257 5.0 7.0 0.00 0.04 0.04 78 1015.4
20260507175630 61 263 3.0 10.0 0.00 0.04 0.04 76 1015.4
20260507175130 61 267 6.0 9.0 0.00 0.04 0.04 76 1015.1
20260507174629 62 236 5.0 6.0 0.00 0.04 0.04 75 1015.2
20260507173628 63 232 2.0 7.0 0.00 0.04 0.04 73 1015.0
20260507173127 62 280 3.0 7.0 0.00 0.04 0.04 74 1015.1
20260507172627 62 196 3.0 8.0 0.00 0.04 0.04 74 1014.8
20260507172127 62 258 3.0 10.0 0.00 0.04 0.04 75 1015.1
20260507171125 63 254 7.0 9.0 0.00 0.04 0.04 74 1014.8
20260507170625 63 267 3.0 10.0 0.00 0.04 0.04 75 1014.7
20260507170125 63 257 4.0 10.0 0.00 0.04 0.04 75 1014.8
20260507165623 63 255 6.0 9.0 0.00 0.04 0.04 75 1014.6
20260507165124 64 266 4.0 8.0 0.00 0.04 0.04 75 1014.8
20260507164622 64 259 5.0 8.0 0.00 0.04 0.04 75 1014.6
20260507164123 64 258 3.0 8.0 0.00 0.04 0.04 75 1014.8
20260507163621 64 233 2.0 8.0 0.00 0.04 0.04 75 1014.7
20260507163122 64 245 6.0 8.0 0.00 0.04 0.04 75 1014.6
20260507162620 64 244 5.0 8.0 0.00 0.04 0.04 75 1015.0
20260507162121 64 246 2.0 14.0 0.00 0.04 0.04 75 1014.7
20260507161621 64 248 2.0 14.0 0.00 0.04 0.04 76 1015.0
20260507161120 64 289 7.0 10.0 0.00 0.04 0.04 75 1014.6
20260507160618 64 253 4.0 9.0 0.00 0.04 0.04 75 1014.8
20260507160118 65 273 5.0 10.0 0.00 0.04 0.04 74 1015.0
20260507155618 65 267 3.0 10.0 0.00 0.05 0.04 73 1014.8
20260507154617 65 231 3.0 9.0 0.00 0.06 0.04 74 1015.0
20260507154116 65 236 7.0 9.0 0.00 0.06 0.04 75 1015.0
20260507153616 67 237 3.0 9.0 0.00 0.06 0.04 71 1014.8
20260507152614 69 163 2.0 7.0 0.00 0.06 0.04 62 1014.8
20260507152114 68 161 4.0 6.0 0.00 0.06 0.04 62 1015.1
20260507151613 69 164 5.0 6.0 0.00 0.06 0.04 60 1014.8
20260507151114 69 154 0.0 5.0 0.00 0.06 0.04 59 1014.8
20260507150612 68 253 2.0 5.0 0.00 0.06 0.04 59 1015.0
20260507150113 69 241 2.0 5.0 0.00 0.06 0.04 59 1015.0
20260507145611 71 258 1.0 8.0 0.00 0.06 0.04 56 1014.8
20260507145112 69 324 1.0 8.0 0.00 0.06 0.04 56 1014.8
20260507144611 72 275 3.0 7.0 0.00 0.06 0.04 42 1014.8
20260507144110 71 106 1.0 7.0 0.00 0.06 0.04 44 1015.0
20260507143109 71 143 1.0 6.0 0.00 0.06 0.04 43 1014.8
20260507142608 71 245 4.0 6.0 0.00 0.06 0.04 46 1014.8
20260507142109 70 108 2.0 6.0 0.00 0.06 0.04 46 1015.0
20260507141607 71 258 3.0 6.0 0.00 0.06 0.04 44 1014.8
20260507141108 73 141 2.0 4.0 0.00 0.06 0.04 45 1015.0
20260507140607 72 281 2.0 4.0 0.00 0.06 0.04 46 1014.8
20260507140106 71 297 0.0 4.0 0.00 0.06 0.04 47 1015.0
20260507135606 72 204 1.0 4.0 0.00 0.06 0.04 46 1015.2
20260507135105 72 86 2.0 4.0 0.00 0.06 0.04 46 1015.1
20260507134605 70 108 1.0 5.0 0.00 0.06 0.04 48 1015.3
20260507134104 70 79 4.0 5.0 0.00 0.06 0.04 47 1015.3
20260507133604 71 94 3.0 5.0 0.00 0.06 0.04 48 1015.4
20260507133103 71 118 0.0 6.0 0.00 0.06 0.04 48 1015.2
20260507132603 72 264 4.0 6.0 0.00 0.06 0.04 46 1015.4
20260507131601 72 125 2.0 6.0 0.00 0.06 0.04 47 1015.4
20260507131101 72 56 2.0 6.0 0.00 0.06 0.04 48 1015.4
20260507130600 71 185 1.0 6.0 0.00 0.06 0.04 47 1015.3
20260507130100 73 46 3.0 6.0 0.00 0.06 0.04 47 1015.5
20260507125600 71 99 2.0 5.0 0.00 0.06 0.04 48 1015.5
20260507125058 73 32 1.0 7.0 0.00 0.06 0.04 46 1015.3
20260507124558 72 91 3.0 7.0 0.00 0.06 0.04 48 1015.6
20260507124058 71 66 2.0 7.0 0.00 0.06 0.04 49 1015.5
20260507123557 70 347 1.0 7.0 0.00 0.06 0.04 46 1015.2
20260507123057 70 22 0.0 6.0 0.00 0.06 0.04 48 1015.4
20260507122056 70 101 3.0 7.0 0.00 0.06 0.04 48 1015.5
20260507121556 71 317 1.0 7.0 0.00 0.06 0.04 47 1015.4
20260507121055 71 142 0.0 7.0 0.00 0.06 0.04 47 1015.4
20260507120555 70 279 1.0 6.0 0.00 0.06 0.04 50 1015.5
20260507120054 70 207 0.0 5.0 0.00 0.06 0.04 51 1015.6
20260507115553 70 102 2.0 4.0 0.00 0.06 0.04 49 1015.5
20260507115053 71 154 0.0 6.0 0.00 0.06 0.04 49 1015.6
20260507114552 70 47 2.0 7.0 0.00 0.06 0.04 49 1015.6
20260507114052 70 79 3.0 8.0 0.00 0.06 0.04 49 1015.5
20260507113051 70 290 3.0 6.0 0.00 0.06 0.04 49 1015.6
20260507112050 72 237 1.0 5.0 0.00 0.06 0.04 48 1015.7
20260507111549 71 178 1.0 8.0 0.00 0.06 0.04 49 1015.6
20260507111049 70 103 3.0 8.0 0.00 0.06 0.04 54 1015.7
20260507110547 68 99 6.0 9.0 0.00 0.06 0.04 55 1015.8
20260507110048 69 105 3.0 9.0 0.00 0.06 0.04 55 1015.8
20260507105547 69 101 4.0 6.0 0.00 0.06 0.04 56 1015.6
20260507105047 68 122 1.0 6.0 0.00 0.06 0.04 56 1016.1
20260507104546 67 268 0.0 6.0 0.00 0.06 0.04 58 1016.0
20260507104046 67 79 3.0 7.0 0.00 0.06 0.04 56 1015.9
20260507103545 67 104 3.0 9.0 0.00 0.06 0.04 58 1016.2
20260507102543 67 66 2.0 8.0 0.00 0.06 0.04 54 1016.0
20260507102043 67 96 3.0 6.0 0.00 0.06 0.04 56 1016.0
20260507101043 67 89 1.0 5.0 0.00 0.06 0.04 58 1016.1
20260507100541 67 322 0.0 6.0 0.00 0.06 0.04 57 1016.1
20260507100042 65 72 6.0 6.0 0.00 0.06 0.04 62 1016.2
20260507095540 65 99 2.0 6.0 0.00 0.06 0.04 61 1016.0
20260507095041 64 144 2.0 8.0 0.00 0.06 0.04 64 1016.0
20260507094540 64 11 2.0 8.0 0.00 0.06 0.04 65 1016.1
20260507094039 64 89 0.0 6.0 0.00 0.06 0.04 65 1016.1
20260507093538 64 21 0.0 6.0 0.00 0.06 0.04 66 1016.0
20260507093038 63 262 3.0 5.0 0.00 0.06 0.04 65 1016.2
20260507092538 64 71 2.0 5.0 0.00 0.06 0.04 64 1016.4
20260507092038 63 91 1.0 4.0 0.00 0.06 0.04 66 1016.4
20260507091537 62 263 1.0 4.0 0.00 0.06 0.04 69 1016.3
20260507090535 61 273 2.0 6.0 0.00 0.06 0.04 70 1016.4
20260507090035 61 142 2.0 6.0 0.00 0.06 0.04 71 1016.4
20260507085534 61 49 0.0 5.0 0.00 0.06 0.04 71 1016.0
20260507085033 62 106 4.0 4.0 0.00 0.06 0.04 69 1016.2
20260507084533 63 169 1.0 4.0 0.00 0.06 0.04 68 1016.1
20260507084013 62 256 1.0 6.0 0.00 0.06 0.04 67 1016.3
20260507083513 63 97 5.0 6.0 0.00 0.06 0.04 66 1016.1
20260507083012 64 72 1.0 8.0 0.00 0.06 0.04 64 1016.0
20260507082011 65 214 3.0 5.0 0.00 0.06 0.04 64 1016.0
20260507081511 64 170 2.0 7.0 0.00 0.06 0.04 66 1016.0
20260507081011 63 112 0.0 6.0 0.00 0.06 0.04 67 1015.9
20260507080509 62 107 3.0 6.0 0.00 0.06 0.04 68 1015.7
20260507080010 62 123 4.0 8.0 0.00 0.06 0.04 69 1015.8
20260507075509 62 55 4.0 11.0 0.00 0.06 0.04 70 1015.8
20260507075009 63 143 3.0 11.0 0.00 0.06 0.04 65 1015.8
20260507074507 63 103 2.0 8.0 0.00 0.06 0.04 65 1015.7
20260507073507 62 119 4.0 12.0 0.00 0.06 0.04 69 1015.6
20260507073006 62 43 4.0 12.0 0.00 0.06 0.04 69 1015.6
20260507072006 62 244 3.0 8.0 0.00 0.06 0.04 70 1015.5
20260507071505 61 91 3.0 8.0 0.00 0.06 0.04 72 1015.4
20260507071004 62 312 4.0 7.0 0.00 0.06 0.04 71 1015.3
20260507070504 64 79 3.0 6.0 0.00 0.06 0.04 67 1015.3
20260507070005 64 236 2.0 6.0 0.00 0.06 0.04 68 1015.5
20260507065503 64 271 3.0 5.0 0.00 0.06 0.04 67 1015.3
20260507065003 64 194 0.0 6.0 0.00 0.06 0.04 68 1015.2
20260507064501 61 245 2.0 9.0 0.00 0.06 0.04 72 1015.3
20260507064002 61 85 1.0 9.0 0.00 0.06 0.04 73 1015.3
20260507063000 59 118 1.0 10.0 0.00 0.06 0.04 76 1015.3
20260507062459 59 285 2.0 6.0 0.00 0.06 0.04 77 1015.2
20260507062000 60 86 3.0 6.0 0.00 0.06 0.04 77 1015.1
20260507061459 60 358 2.0 7.0 0.00 0.06 0.04 77 1015.1
20260507060958 59 128 2.0 7.0 0.00 0.06 0.04 78 1015.3
20260507060457 59 239 1.0 6.0 0.00 0.06 0.04 79 1015.2
20260507055957 58 341 1.0 7.0 0.00 0.06 0.04 78 1015.1
20260507055457 57 250 1.0 7.0 0.00 0.06 0.04 81 1015.0
20260507054958 57 143 2.0 6.0 0.00 0.06 0.04 81 1015.1
20260507054455 57 173 2.0 6.0 0.00 0.06 0.04 82 1015.1
20260507053955 57 39 3.0 5.0 0.00 0.06 0.04 81 1015.0
20260507053455 57 145 3.0 5.0 0.00 0.06 0.04 81 1015.2
20260507052955 56 86 3.0 8.0 0.00 0.06 0.04 82 1015.0
20260507052453 56 230 3.0 8.0 0.00 0.06 0.04 83 1015.0
20260507051953 56 330 2.0 8.0 0.00 0.06 0.04 84 1014.8
20260507051453 56 214 0.0 5.0 0.00 0.06 0.04 84 1015.0
20260507050451 55 106 3.0 8.0 0.00 0.06 0.04 86 1014.5
20260507045951 55 347 1.0 11.0 0.00 0.06 0.04 87 1014.5
20260507045451 55 79 6.0 11.0 0.00 0.06 0.04 88 1014.6
20260507044449 55 204 3.0 14.0 0.00 0.06 0.04 88 1014.3
20260507043449 55 83 3.0 8.0 0.00 0.06 0.04 88 1013.9
20260507042447 55 84 5.0 10.0 0.00 0.06 0.04 89 1014.0
20260507041946 55 69 2.0 11.0 0.00 0.06 0.04 89 1013.7
20260507041446 55 357 3.0 11.0 0.00 0.06 0.04 89 1013.5
20260507040945 55 170 2.0 13.0 0.00 0.06 0.04 89 1013.5
20260507040446 55 349 3.0 13.0 0.00 0.06 0.04 89 1013.4
20260507035945 55 330 1.0 12.0 0.00 0.06 0.04 89 1013.4
20260507035444 55 81 4.0 14.0 0.01 0.06 0.04 89 1013.5
20260507034944 55 151 2.0 14.0 0.01 0.06 0.04 89 1013.5
20260507034443 55 66 4.0 10.0 0.01 0.06 0.04 90 1013.6
20260507033942 55 47 4.0 13.0 0.02 0.06 0.04 90 1013.6
20260507033442 55 83 4.0 13.0 0.02 0.06 0.04 90 1013.6
20260507032942 55 78 6.0 10.0 0.02 0.06 0.04 90 1013.6
20260507032440 55 73 8.0 8.0 0.03 0.06 0.04 90 1013.7
20260507031941 55 259 2.0 7.0 0.03 0.06 0.04 89 1013.7
20260507031440 55 235 2.0 15.0 0.03 0.06 0.04 88 1014.0
20260507030939 55 169 4.0 15.0 0.02 0.06 0.04 89 1013.8
20260507030439 55 48 3.0 13.0 0.03 0.06 0.04 89 1013.9
20260507025437 55 109 5.0 12.0 0.03 0.05 0.03 90 1014.0
20260507024937 55 70 4.0 12.0 0.02 0.05 0.03 89 1014.0
20260507024437 55 72 7.0 11.0 0.03 0.05 0.03 89 1014.0
20260507023936 56 91 5.0 8.0 0.02 0.04 0.02 88 1013.9
20260507022936 56 155 2.0 9.0 0.02 0.04 0.02 88 1014.0
20260507022436 56 10 4.0 9.0 0.01 0.03 0.01 88 1013.7
20260507021434 56 186 2.0 9.0 0.01 0.03 0.01 85 1013.6
20260507020934 56 87 2.0 8.0 0.01 0.03 0.01 86 1013.6
20260507020433 56 165 3.0 6.0 0.01 0.03 0.01 86 1013.6
20260507015932 56 33 2.0 6.0 0.01 0.03 0.01 86 1013.7
20260507015432 56 111 5.0 5.0 0.00 0.02 0.00 86 1013.6
20260507014431 57 242 2.0 10.0 0.00 0.02 0.00 85 1013.8
20260507013931 57 210 2.0 8.0 0.00 0.02 0.00 85 1013.8
20260507013430 57 267 3.0 7.0 0.00 0.02 0.00 84 1013.8
20260507012929 57 224 3.0 9.0 0.00 0.02 0.00 84 1013.9
20260507012429 57 69 3.0 9.0 0.00 0.02 0.00 84 1013.8
20260507011928 57 187 4.0 6.0 0.00 0.02 0.00 83 1013.8
20260507011428 57 128 1.0 7.0 0.00 0.02 0.00 83 1013.7
20260507010426 57 235 4.0 12.0 0.00 0.02 0.00 82 1013.5
20260507005927 57 284 4.0 12.0 0.00 0.02 0.00 82 1013.7
20260507005425 57 143 3.0 8.0 0.00 0.02 0.00 82 1013.6
20260507004926 57 276 4.0 8.0 0.00 0.02 0.00 82 1013.6
20260507003924 57 218 2.0 8.0 0.00 0.02 0.00 82 1013.6
20260507003424 57 214 3.0 11.0 0.00 0.02 0.00 83 1013.9
20260507002923 57 268 3.0 11.0 0.00 0.02 0.00 83 1013.8
20260507001922 57 86 2.0 16.0 0.00 0.02 0.00 83 1013.4
20260507001421 57 84 8.0 18.0 0.00 0.02 0.00 83 1013.6
20260507000420 57 86 9.0 22.0 0.00 0.02 0.00 82 1013.3
20260506235921 57 68 2.0 22.0 0.00 0.02 0.00 82 1013.5
20260506235419 58 67 5.0 17.0 0.00 0.02 0.00 82 1013.4
20260506234919 58 93 9.0 17.0 0.00 0.02 0.00 81 1013.3